Regional Weather Roundup
Issued by NWS Kansas City/Pleasant Hill, MO

Home | Current Version | Previous Version | Text Only | Print | Product List | Glossary On
Versions: 1 2 3 4 5 6 7 8 9 10 11 12 13 14 15 16 17 18 19 20 21 22 23 24 25 26 27 28 29 30 31 32 33 34 35 36 37 38 39 40 41 42 43 44 45 46 47 48 49 50
000
ASUS43 KEAX 240615
RWREAX

WEATHER ROUNDUP FOR EASTERN KANSAS AND NORTHWEST MISSOURI
NATIONAL WEATHER SERVICE KANSAS CITY/PLEASANT HILL MO
1200 AM CST MON FEB 24 2020

KSZ040-057-103>105-MOZ028-029-037-043-240700-
...KANSAS CITY METROPOLITAN AREA...

CITY           SKY/WX    TMP DP  RH WIND       PRES   REMARKS
K.C. INTL      CLOUDY    49  40  71 E8        29.84F
6HR MIN TEMP:  48; 6HR MAX TEMP:  58;

K.C. DOWNTOWN  LGT RAIN  51  40  65 E5        29.83F
6HR MIN TEMP:  51; 6HR MAX TEMP:  57; 6HR PCP: TRACE;

LEES SUMMIT    LGT RAIN  47  41  80 E7        29.85F
6HR MIN TEMP:  47; 6HR MAX TEMP:  54; 6HR PCP:  0.02;

OLATHE - IXD   LGT RAIN  46  44  93 E6        29.83F FOG
6HR MIN TEMP:  46; 6HR MAX TEMP:  55; 6HR PCP:  0.10;

OLATHE - OJC   RAIN      45  45 100 E8        29.81F FOG
6HR MIN TEMP:  45; 6HR MAX TEMP:  51; 6HR PCP:  0.09;

LAWRENCE       LGT RAIN  47  43  86 E7        29.82F FOG

$$

MOZ001>008-011>017-020>025-030>033-038>040-044>046-053-054-240700-
...NORTHERN AND CENTRAL MISSOURI...

CITY           SKY/WX    TMP DP  RH WIND       PRES   REMARKS
ST. JOSEPH     CLOUDY    48  38  68 NE10      29.86F
6HR MIN TEMP:  42; 6HR MAX TEMP:  56;

MOSBY          CLOUDY    45  37  76 CALM      29.85F
HARRISONVILLE  LGT RAIN  46  45  93 E7        29.83F
WHITEMAN AFB   RAIN      45  45 100 CALM      29.83F FOG
CLINTON        RAIN      46  46 100 E5        29.86F
SEDALIA        RAIN      46  44  93 SE5       29.89F FOG
6HR MIN TEMP:  46; 6HR MAX TEMP:  55; 6HR PCP:  0.14;

MARSHALL       CLOUDY    45  41  87 CALM      29.90R
CHILLICOTHE      N/A     43  40  89 CALM      29.89F
6HR MIN TEMP:  40; 6HR MAX TEMP:  54;

KIRKSVILLE     CLEAR     44  36  73 NE9       29.89F
6HR MIN TEMP:  40; 6HR MAX TEMP:  53;


$$

MOZ041-047>049-056>058-063>065-088>090-097-240700-
...EASTERN AND SOUTHERN MISSOURI...

CITY           SKY/WX    TMP DP  RH WIND       PRES   REMARKS
ST. LOUIS INTL MOCLDY    48  39  71 S7        29.94F
6HR MIN TEMP:  48; 6HR MAX TEMP:  55;

SPIRIT OF STL  CLOUDY    49  39  68 VRB3      29.93F
COLUMBIA       LGT RAIN  46  42  86 S9        29.89F
JEFFERSON CITY LGT RAIN  47  43  86 SE5       29.91F
MEXICO         CLOUDY    43  37  81 SE5       29.89F
HANNIBAL       MOCLDY    48  34  57 CALM      29.90S
ROLLA          LGT RAIN  44  42  93 S10       29.90F
LEBANON        LGT RAIN  43  41  93 SE9       29.86F
OSAGE BEACH    RAIN      44  44 100 SE5       29.89F FOG
SPRINGFIELD    HVY RAIN  44  43  96 SE17      29.82F FOG
JOPLIN         LGT RAIN  47  45  93 E10       29.79F FOG
WEST PLAINS    RAIN      43  41  93 SE7       29.91F FOG
SIKESTON       DRIZZLE   45  45 100 S7        30.01F

$$

IAZ060-094-KSZ022-034>040-054-083-096-NEZ052-066-093-240700-
...KANSAS...SOUTHEAST NEBRASKA AND IOWA...

CITY           SKY/WX    TMP DP  RH WIND       PRES   REMARKS
TOPEKA         LGT RAIN  48  43  82 E6        29.82F
6HR MIN TEMP:  48; 6HR MAX TEMP:  56; 6HR PCP:  0.03;

MANHATTAN        N/A    N/A N/A N/A MISG      29.81F
EMPORIA        LGT RAIN  45  45 100 E9        29.78F FOG
OTTAWA         LGT RAIN  46  46 100 SE9       29.79F
CHANUTE        HVY RAIN  49  46  90 E10       29.77F FOG
SALINA         LGT RAIN  46  43  89 NE10      29.77F
WICHITA        LGT RAIN  46  44  93 E18G28    29.66F
OMAHA          CLOUDY    36  29  75 N8        29.95F WCI  30
LINCOLN        PTCLDY    39  29  67 N13       29.94F WCI  31
FALLS CITY       N/A     45  34  65 NE8       29.87S
LAMONI         PTCLDY    40  29  64 NE12      29.92S WCI  33
DES MOINES     CLOUDY    37  27  67 N7        29.95F WCI  32

$$




USA.gov is the U.S. government's official web portal to all federal, state and local government web resources and services.